This is the latest recevied weather packets stored in our database for station/object WV6L-13. If no packets are shown the sender has not sent any weather packets the latest 1 day(s).
| Time | Temp. | Humidity | Pressure | Rain* | Wind** | Luminosity | Snow |
|---|---|---|---|---|---|---|---|
| 1777999193 | 14.44° C | 48% | 923.6 hPa | - | 3.58 m/s, 283° | - | - |
| 1777998893 | 14.44° C | 48% | 923.6 hPa | - | 2.68 m/s, 263° | - | - |
| 1777998593 | 14.44° C | 47% | 923.4 hPa | - | 1.34 m/s, 210° | - | - |
| 1777997993 | 14.44° C | 48% | 923.4 hPa | - | 2.24 m/s, 180° | - | - |
| 1777997693 | 15° C | 46% | 923.4 hPa | - | 0.89 m/s, 172° | - | - |
| 1777997393 | 15° C | 46% | 923.4 hPa | - | 1.34 m/s, 261° | - | - |
| 1777997093 | 14.44° C | 48% | 923.3 hPa | - | 0.89 m/s, 133° | - | - |
| 1777996793 | 13.89° C | 50% | 923.5 hPa | - | 1.79 m/s, 180° | - | - |
| 1777996193 | 14.44° C | 50% | 923.4 hPa | - | 1.34 m/s, 128° | - | - |
| 1777995893 | 14.44° C | 48% | 923.3 hPa | - | 2.68 m/s, 153° | - | - |
| 1777995593 | 15° C | 48% | 923.4 hPa | - | 2.24 m/s, 130° | - | - |
| 1777995293 | 14.44° C | 50% | 923.2 hPa | - | 3.13 m/s, 134° | - | - |
| 1777994993 | 13.89° C | 51% | 923.2 hPa | - | 4.47 m/s, 129° | - | - |
| 1777994693 | 14.44° C | 49% | 923.2 hPa | - | 2.68 m/s, 144° | - | - |
| 1777994393 | 14.44° C | 50% | 923.1 hPa | - | 4.47 m/s, 148° | - | - |
| 1777994093 | 14.44° C | 49% | 923.2 hPa | - | 7.6 m/s, 149° | - | - |
| 1777993793 | 14.44° C | 50% | 923.2 hPa | - | 4.47 m/s, 129° | - | - |
| 1777993493 | 13.89° C | 51% | 923.3 hPa | - | 1.79 m/s, 115° | - | - |
| 1777993193 | 12.78° C | 53% | 923.2 hPa | - | 1.34 m/s, 182° | - | - |
| 1777992893 | 13.33° C | 52% | 923.3 hPa | - | 1.34 m/s, 219° | - | - |
| 1777992593 | 13.89° C | 53% | 923 hPa | - | 3.58 m/s, 169° | - | - |
| 1777992293 | 13.33° C | 53% | 922.9 hPa | - | 4.92 m/s, 140° | - | - |
| 1777991993 | 13.33° C | 54% | 922.9 hPa | - | 5.36 m/s, 138° | - | - |
| 1777991693 | 13.33° C | 54% | 923.1 hPa | - | 4.47 m/s, 116° | - | - |
| 1777991393 | 12.78° C | 54% | 922.9 hPa | - | 3.58 m/s, 119° | - | - |
* Rain since midnight (hover to see other rain measurements)
** Current wind speed in m/s (hover to see current wind gust speed)